Location: Unspecified
(0.0000°N, 0.0000°E)
Time: 08:40:28
(UTC+00:00)

deb Briz - Visible Passes

Search period start: 09 February 2026 00:00
Search period end: 19 February 2026 00:00
Orbit: 1853 x 2018 km, 65.0° (Epoch: 8 February)

Date Brightness Start Highest point End Pass type
(mag) Time Alt. Az. Time Alt. Az. Time Alt. Az.
9 Feb ? 19:41:04 10° SSW 19:51:54 89° WNW 20:01:32 14° NNE visible
9 Feb ? 21:59:54 10° WNW 22:01:58 11° WNW 22:04:02 10° NW visible
10 Feb ? 18:43:19 10° S 18:53:35 48° ESE 19:03:39 10° NE visible
10 Feb ? 20:54:47 10° WSW 21:03:20 28° WNW 21:11:56 10° NNW visible
11 Feb ? 19:54:30 10° SW 20:04:57 57° WNW 20:15:21 10° N visible
12 Feb ? 05:19:15 10° NNE 05:25:30 16° ENE 05:31:45 10° E visible
12 Feb ? 18:55:50 10° SSW 19:06:38 77° ESE 19:17:18 10° NNE visible
12 Feb ? 21:11:16 10° W 21:16:34 15° WNW 21:21:54 10° NW visible
13 Feb ? 20:08:43 10° SW 20:18:01 34° WNW 20:27:21 10° N visible
14 Feb ? 05:29:24 10° NNE 05:38:46 29° ENE 05:48:09 10° SE visible
14 Feb ? 19:08:59 10° SSW 19:19:40 69° WNW 19:30:17 10° NNE visible
15 Feb ? 04:36:27 10° NE 04:40:06 12° ENE 04:43:45 10° E visible
15 Feb ? 20:24:14 10° WSW 20:31:12 19° WNW 20:38:12 10° NNW visible
16 Feb ? 05:41:03 10° N 05:51:54 48° ENE 06:02:48 10° SE visible
16 Feb ? 19:22:52 10° SW 19:32:43 42° WNW 19:42:35 10° N visible
17 Feb ? 04:45:01 10° NNE 04:53:25 23° ENE 05:01:49 10° ESE visible
17 Feb ? 18:23:35 10° SSW 18:34:23 82° WNW 18:45:06 10° NNE visible
18 Feb ? 19:37:43 10° WSW 19:45:50 25° WNW 19:54:00 10° NNW visible
